Terminal Aerodrome Forecast
Issued by NWS

Home | Current Version | Previous Version | Graphics & Text | Print | Product List | Glossary On
Versions: 1 2 3 4 5 6 7 8 9 10 11 12 13 14 15 16 17 18 19
000
FTUS43 KICT 242200 AAA
TAFHUT
TAF AMD
KHUT 242206Z 2422/2518 15017G22KT P6SM SKC
     FM250000 16012KT P6SM SCT250
     FM251200 19012KT P6SM BKN250
     FM251500 21015G25KT P6SM BKN250=

USA.gov is the U.S. government's official web portal to all federal, state and local government web resources and services.